Location: Elstree
(51.6403°N, 0.2969°W)
Time: 22:34:39
(UTC+00:00)

Cosmos 1271 Rocket - Visible Passes

Search period start: 24 June 2021 00:00
Search period end: 04 July 2021 00:00
Orbit: 497 x 545 km, 81.2° (Epoch: 24 June)

Date Brightness Start Highest point End Pass type
(mag) Time Alt. Az. Time Alt. Az. Time Alt. Az.
24 Jun 4.6 01:20:30 10° N 01:23:46 27° ENE 01:27:01 10° SE visible
24 Jun 3.7 02:56:28 10° NNW 02:59:43 28° W 03:02:59 10° SSW visible
25 Jun 4.7 01:07:10 10° N 01:10:19 25° ENE 01:13:28 10° ESE visible
25 Jun 3.6 02:42:58 10° NNW 02:46:20 32° W 02:49:43 10° SSW visible
26 Jun 4.8 00:53:51 10° NNE 00:56:52 22° ENE 00:59:53 10° ESE visible
26 Jun 3.4 02:29:29 10° NNW 02:32:57 36° W 02:36:26 10° SSW visible
27 Jun 5.0 00:40:33 10° NNE 00:43:25 20° ENE 00:46:18 10° ESE visible
27 Jun 3.2 02:16:01 10° NNW 02:19:34 40° W 02:22:52 12° SSW visible
28 Jun 5.1 00:27:15 10° NNE 00:29:58 18° ENE 00:32:40 10° ESE visible
28 Jun 3.1 02:02:33 10° NNW 02:06:11 45° W 02:09:13 14° SSW visible
29 Jun 5.2 00:13:59 10° NNE 00:16:30 17° ENE 00:19:01 10° ESE visible
29 Jun 2.9 01:49:06 10° NNW 01:52:46 52° W 01:55:36 16° S visible
30 Jun 5.3 00:00:43 10° NNE 00:03:01 15° ENE 00:05:20 10° E visible
30 Jun 2.8 01:35:39 10° NNW 01:39:22 59° W 01:42:00 18° S visible
30 Jun 5.3 23:47:29 10° NNE 23:49:33 14° ENE 23:51:37 10° E visible
01 Jul 2.7 01:22:13 10° NNW 01:25:58 67° W 01:28:26 21° S visible
01 Jul 5.3 23:34:19 10° NNE 23:36:04 13° ENE 23:37:49 10° E visible
02 Jul 2.6 01:08:46 10° NNW 01:12:34 76° W 01:14:53 23° S visible
02 Jul 5.4 23:21:13 10° NE 23:22:35 12° ENE 23:23:57 10° E visible
03 Jul 2.6 00:55:20 10° NNW 00:59:09 86° W 01:01:20 24° S visible
03 Jul 5.5 23:08:20 10° NE 23:09:06 10° ENE 23:09:51 10° ENE visible
